DELTA 1 DEB, 10314

Orbit data source: Space-Track

DELTA 1 DEB, 10314 is space debris in LEO originally from a launch on Thu, 14 Jul 1977 UTC launched from the Air Force Eastern Test Range (AFETR). Debris objects in space refer to the collection of defunct objects orbiting the Earth. Examples of debris include non-operational satellites, rocket bodies, and fragments generated from explosions, collisions, or faulty payload assembly.

Loading next visibility...
Identifier
10314, 1977-065DL
Orbit
LEO
Country
Flag of USUS
Related business
Manufacturer
Unknown
Mission
Spacecraft
Bus & Motor
Unknown
Mass
Unknown
Launch date (UTC)
1977-07-14 (49 years ago)
Launch vehicle
Unknown
Launch site
Air Force Eastern Test Range (AFETR)
Object type
Payload
Rocket body
Debris
Shape & HBR
Unknown shape, 0.1 m
Radar Cross Section
Small (<0.1 m²)

Expand to show TLE details & history
Last TLE update: 11 hours ago

TLE from 11 hours ago
0 DELTA 1 DEB
1 10314U 77065DL  26262.94921602  .00002508  00000-0  83299-3 0  9994
2 10314  28.7760 164.0691 0629978  96.2807 355.3536 13.59949139372242
Epoch: 2026-09-19T22:46Z
TLE epoch observation values (Epoch: 2026-09-19T22:46:52.264Z)
Latitude
28.90579°
Longitude
-85.35755°
Altitude
569.748 km
Speed
7.815 km/s
True Right ascension
17h 00m 50s
True Declination
28° 45' 24"
Sunlit
Object was in daylight at epoch
Visualization orbit readout
Latitude
Unknown
Longitude
Unknown
Altitude
Unknown
Speed
Unknown
Apparent Right ascension
Unknown
Apparent Declination
Unknown
Sunlit
N/A
Visualization observer readout
Local Sidereal Time
02:39:34
Azimuth
Unknown
Elevation
Unknown
Doppler factor
Unknown
Orbital elements
Apogee altitude
1,507.094 km
Perigee altitude
572.469 km
Semi-major axis
7,417.919 km
Eccentricity
0.063
Inclination
28.776°
RAAN
164.0691°
Arg. of periapsis
96.2807°
True anomaly
354.71921°
Mean anomaly
355.3536°
Eccentric anomaly
355.04162°
Mean motion
3.39719 °/min
Orbital period
105.97 mins
BSTAR
0.00083299
Loading maneuver chart data...
Computing Atmospheric mass density...
Loading historical data...
Loading historical data...
Loading historical data...
Loading historical data...
Loading historical data...
Loading historical data...
Loading historical data...

Documentation

Showing up to 5 results
|